Temperature
3 3 3 3 3 3 3 3 2 2 2 3 3 3 3 4 4 4 4 4 4 4 5 5 5 5 5 5 5 5 5 4 4 5 5 5 5 5
2 2 2 2 3 3 2 2 2 2 2 2 3 3 3 3 3 3 3 3 4 4 4 4 4 4 4 4 4 4 4 4 4 4 4 4 4 4
2 2 2 2 2 2 2 2 2 2 2 2 2 2 2 3 3 3 3 3 3 3 3 3 4 4 4 4 4 4 4 4 4 4 4 4 4 4
1 1 2 2 2 2 1 1 1 1 1 1 2 2 2 2 2 2 3 3 3 3 3 3 3 3 3 3 3 3 3 3 3 3 3 3 3 3
1 1 1 1 1 1 1 1 1 1 1 1 1 1 1 1 1 2 2 2 2 2 2 2 2 3 3 3 3 3 3 3 3 3 3 3 3 3
1 1 1 1 1 1 1 1 1 1 1 1 1 1 1 1 1 1 1 2 2 2 2 2 2 2 2 2 2 2 2 2 2 3 3 2 2 2
1 1 1 1 0 0 0 0 1 1 0 0 0 0 0 0 0 0 1 1 1 1 1 2 2 2 2 2 2 2 2 2 2 2 2 2 2 2
0 0 -0 -0 -0 -0 -0 -0 0 0 0 0 -0 0 0 0 0 0 0 0 0 0 1 1 1 1 1 1 1 1 1 1 1 1 1 1 1 1
-0 -0 -1 -1 -1 -1 -1 -1 -0 -0 -0 -0 -0 -0 -0 -0 -0 -0 -0 -0 -0 -0 0 0 0 1 1 1 1 1 1 1 1 1 1 1 1 1
-1 -1 -1 -1 -1 -1 -1 -1 -1 -1 -1 -0 -0 -0 -0 -0 -0 -0 -1 -1 -0 -0 -0 -0 -0 0 0 0 0 0 0 0 0 0 0 0 0 0
-1 -1 -1 -1 -1 -1 -1 -1 -1 -1 -1 -1 -1 -1 -0 -0 -1 -1 -1 -1 -1 -1 -1 -1 -1 -1 -1 -0 -0 -0 -0 -0 -0 -0 -0 -0 -0 -0
-1 -1 -1 -2 -2 -2 -2 -2 -2 -1 -1 -1 -1 -1 -1 -1 -1 -1 -1 -1 -1 -1 -1 -1 -1 -2 -2 -1 -1 -1 -1 -1 -1 -1 -1 -1 -1 -0
-2 -2 -2 -2 -2 -2 -2 -2 -2 -2 -2 -2 -1 -1 -1 -1 -1 -1 -1 -2 -2 -1 -1 -2 -2 -2 -2 -3 -2 -1 -1 -1 -1 -1 -1 -1 -1 -1
-2 -2 -2 -2 -2 -2 -2 -2 -2 -2 -2 -2 -2 -2 -2 -2 -2 -2 -2 -2 -2 -2 -2 -2 -2 -2 -2 -3 -3 -2 -2 -2 -2 -1 -1 -1 -1 -1
-3 -3 -3 -3 -3 -3 -3 -2 -2 -2 -2 -2 -2 -2 -2 -2 -2 -2 -2 -2 -2 -2 -2 -2 -2 -2 -2 -2 -3 -2 -2 -2 -2 -2 -2 -2 -1 -1
-3 -3 -3 -3 -3 -3 -3 -3 -3 -3 -3 -3 -3 -3 -3 -2 -2 -2 -2 -2 -2 -2 -2 -2 -2 -2 -2 -2 -2 -2 -2 -3 -2 -2 -2 -2 -1 -1
-3 -4 -4 -4 -4 -4 -3 -3 -3 -3 -3 -3 -3 -3 -3 -3 -3 -3 -3 -3 -3 -3 -3 -2 -2 -2 -2 -2 -2 -2 -2 -3 -3 -3 -3 -2 -1 -1
-4 -4 -4 -4 -4 -4 -4 -4 -4 -4 -4 -4 -3 -3 -3 -3 -3 -3 -3 -3 -3 -3 -3 -3 -3 -3 -2 -2 -3 -3 -3 -3 -3 -3 -3 -3 -2 -2
-4 -4 -4 -4 -4 -4 -4 -4 -4 -4 -4 -4 -4 -4 -4 -4 -4 -4 -4 -4 -4 -3 -3 -3 -3 -4 -4 -4 -3 -3 -3 -3 -3 -3 -3 -3 -2 -2
-4 -4 -4 -4 -4 -4 -4 -4 -4 -4 -4 -4 -4 -4 -4 -4 -4 -4 -4 -4 -4 -4 -4 -3 -3 -3 -4 -4 -4 -4 -4 -4 -3 -3 -3 -3 -2 -2
-5 -5 -5 -5 -5 -4 -4 -4 -4 -4 -4 -4 -4 -4 -4 -4 -4 -4 -4 -4 -4 -4 -4 -4 -3 -3 -3 -4 -4 -4 -4 -3 -4 -4 -3 -3 -3 -3
-5 -5 -5 -5 -5 -5 -5 -5 -4 -4 -4 -4 -4 -4 -4 -4 -4 -4 -4 -4 -4 -4 -4 -4 -4 -3 -3 -4 -4 -4 -4 -3 -3 -3 -3 -3 -3 -3
-5 -5 -5 -5 -5 -4 -5 -5 -5 -5 -5 -5 -5 -4 -4 -4 -5 -4 -4 -4 -4 -4 -4 -4 -4 -4 -4 -4 -4 -4 -4 -4 -4 -4 -3 -3 -3 -3
Wind_Speed
3 3 2 3 2 2 2 2 3 4 4 2 2 1 2 2 4 4 4 6 8 7 6 6 6 6 7 7 7 8 8 9 9 9 9 7 7 7
2 3 3 2 2 2 2 2 3 3 4 3 2 3 3 3 5 5 4 6 7 7 6 6 6 7 7 7 7 7 8 8 9 9 8 7 7 7
2 3 3 2 2 2 2 2 3 3 4 4 2 2 3 3 3 3 4 3 4 6 5 6 6 6 6 6 7 7 7 8 9 8 6 7 7 7
3 3 3 3 3 2 2 3 3 3 3 4 4 2 3 2 2 2 3 3 3 5 5 5 6 6 6 6 6 7 7 8 8 6 6 7 7 7
3 3 3 3 3 3 3 3 2 3 2 3 4 3 2 2 2 3 2 2 4 4 5 5 6 6 6 6 6 7 8 7 6 7 7 7 7 7
3 3 3 3 3 3 3 3 3 2 2 2 3 3 2 2 2 2 2 2 3 3 4 5 5 6 7 7 7 6 6 6 7 7 6 6 6 6
3 3 3 3 3 3 2 2 2 2 2 2 3 3 2 2 2 2 2 2 2 2 2 3 3 2 4 6 6 6 6 7 7 7 6 6 6 6
3 3 2 3 3 4 4 3 3 2 2 3 3 3 3 2 2 2 2 2 2 1 2 3 2 2 2 3 6 7 7 7 7 7 6 6 6 6
3 3 2 2 3 2 2 3 3 4 4 3 4 4 3 3 2 2 2 2 3 2 2 3 2 3 3 4 7 7 7 7 6 7 7 7 6 6
2 1 1 1 2 1 0 1 1 2 3 3 3 4 4 3 3 3 2 1 1 1 1 2 2 3 4 3 6 7 7 7 7 7 7 6 6 6
1 1 1 1 1 1 1 1 2 2 3 3 3 4 4 4 2 1 1 0 2 2 1 0 1 3 3 3 4 6 7 7 7 7 7 7 6 6
1 1 2 1 2 2 1 1 2 2 2 2 2 3 2 1 1 1 2 2 1 2 1 0 1 2 2 2 2 4 5 6 7 7 7 7 7 4
1 1 1 2 2 3 2 1 3 2 1 1 1 1 1 1 1 1 1 1 2 3 2 1 2 2 1 3 4 4 4 4 4 5 6 7 7 5
1 1 1 2 2 2 2 2 2 2 1 1 1 1 1 1 1 1 2 2 2 3 3 2 2 2 2 3 3 3 3 4 4 4 5 6 7 6
1 1 1 1 2 1 2 3 2 1 1 1 1 1 1 1 1 1 2 2 3 4 3 2 2 2 2 2 3 3 4 4 3 3 4 4 4 4
1 1 1 1 1 2 2 2 1 1 1 1 1 1 1 1 1 1 1 1 2 3 4 4 2 2 2 2 2 3 3 2 3 4 3 3 4 3
1 1 1 1 1 1 1 1 1 1 1 1 1 1 1 1 1 1 1 1 1 2 3 3 4 3 2 2 1 1 1 2 3 3 3 3 3 3
1 1 2 2 1 1 1 1 1 1 1 1 1 1 1 1 1 1 1 1 1 1 2 2 2 3 3 2 1 1 1 2 3 3 3 2 3 3
1 1 1 2 2 2 2 2 2 2 1 1 1 1 1 1 1 1 1 1 1 2 2 2 2 2 2 3 2 2 1 2 2 3 3 2 2 3
1 1 2 2 2 2 2 2 1 1 1 1 1 1 1 1 1 1 1 1 1 2 2 3 2 2 2 1 1 3 4 2 2 2 3 3 2 3
1 1 2 2 2 2 1 2 2 2 1 1 1 1 1 1 1 1 1 2 1 1 2 3 3 3 2 1 1 2 3 5 3 2 2 2 2 2
1 2 2 2 2 1 1 1 1 1 1 1 1 1 1 1 1 1 1 1 1 2 2 2 2 2 2 1 1 2 3 4 6 6 4 2 1 0
2 2 2 2 2 1 1 2 2 1 1 1 1 1 1 1 1 1 1 1 0 1 1 2 2 2 2 1 1 1 3 4 3 4 5 7 5 3
Wind_Direction
227 236 241 241 238 244 238 223 237 277 283 268 299 302 343 318 303 307 301 308 312 313 315 318 320 322 322 323 321 321 321 317 316 311 310 304 302 304
226 229 242 242 233 234 238 245 240 251 273 281 285 292 302 309 306 311 300 310 314 312 313 315 319 321 319 317 320 321 322 321 318 310 304 309 306 308
248 239 241 244 235 229 232 240 248 247 265 286 284 283 292 296 307 314 314 307 310 309 311 320 323 324 324 322 323 324 325 322 316 312 312 315 311 312
240 244 252 251 243 235 234 238 243 245 253 276 287 285 285 289 300 307 323 329 324 319 324 327 327 329 330 330 331 332 329 322 319 321 321 317 319 319
236 239 250 246 245 241 237 240 245 256 254 261 279 286 288 292 310 321 327 329 330 327 333 337 336 334 330 329 328 327 327 327 330 331 325 320 317 320
237 237 241 242 246 242 242 240 243 246 251 253 270 282 287 293 303 309 316 325 328 337 337 333 327 328 328 326 325 326 328 333 332 332 328 325 323 323
243 245 245 262 275 268 260 251 244 239 247 253 261 278 281 274 282 293 300 313 328 335 338 328 335 339 341 337 339 338 337 337 336 339 343 339 336 332
240 246 247 251 269 282 286 293 283 249 242 250 258 259 271 273 289 286 284 301 303 321 347 329 339 329 329 343 335 336 336 335 337 339 339 340 342 343
243 238 240 256 267 266 292 303 313 304 280 261 253 256 260 258 262 265 270 284 279 272 333 312 325 327 329 335 328 328 331 333 339 342 340 339 342 344
242 237 213 221 251 247 275 306 299 296 283 273 258 260 260 248 234 237 251 288 304 308 353 300 310 317 321 332 322 321 326 333 339 343 342 339 341 342
242 236 214 217 294 303 279 283 300 309 318 303 284 278 285 273 256 198 177 179 301 310 339 269 293 319 316 311 333 330 332 337 339 342 344 346 344 342
260 247 233 247 285 307 278 239 273 294 323 333 335 332 337 347 340 212 204 220 274 283 261 298 284 332 329 318 329 340 340 336 338 341 345 347 344 352
242 260 256 277 283 293 292 259 271 293 300 302 313 322 336 359 351 344 303 239 260 270 259 293 284 305 287 306 321 324 333 344 349 348 349 347 346 350
245 254 258 293 288 286 292 306 305 310 309 303 303 306 321 332 340 350 6 352 310 268 259 268 269 271 288 299 301 315 327 339 348 344 354 355 353 350
243 262 298 299 313 295 314 335 328 301 277 290 290 299 308 302 331 11 33 20 5 342 323 303 276 273 276 271 279 294 312 326 349 348 342 343 341 342
249 249 273 294 317 328 329 324 321 309 288 276 294 315 335 342 333 338 335 354 3 350 355 360 339 296 295 292 276 286 303 308 328 335 337 338 349 1
223 180 223 230 257 285 293 301 297 309 315 308 292 313 330 333 334 357 356 352 347 340 345 355 14 25 339 279 273 281 315 325 318 326 337 337 332 346
198 205 226 224 233 246 253 262 268 274 277 286 294 294 284 295 326 342 346 353 338 331 335 338 1 8 13 11 329 235 304 324 327 328 334 336 330 336
194 216 229 233 241 247 248 250 253 261 257 259 262 266 282 304 316 315 320 338 337 330 324 321 334 6 8 344 335 351 336 333 342 339 340 334 315 317
210 223 232 237 247 243 238 243 254 262 254 250 244 246 255 276 279 285 298 311 322 332 335 339 342 341 325 289 289 318 343 340 345 340 336 338 326 330
235 236 235 234 243 242 245 242 237 242 248 244 243 241 249 261 269 282 302 321 337 337 328 323 327 335 350 27 7 343 343 356 340 313 322 340 348 356
244 240 237 230 229 231 239 234 229 229 231 237 241 241 246 250 251 255 262 296 320 332 334 336 343 356 11 34 21 352 353 359 13 16 8 351 287 244
240 247 248 230 227 228 230 230 229 230 230 232 238 248 254 263 265 255 261 270 325 343 353 358 357 3 19 37 39 14 6 0 8 14 8 11 19 23
Height
1450 1451 1451 1452 1452 1452 1452 1452 1453 1450 1448 1448 1449 1449 1449 1448 1448 1447 1447 1447 1446 1445 1445 1444 1443 1443 1442 1441 1441 1440 1440 1439 1438 1437 1437 1436 1436 1436
1446 1447 1447 1447 1448 1448 1449 1449 1449 1449 1446 1445 1446 1446 1446 1445 1445 1444 1443 1443 1442 1442 1441 1441 1440 1439 1438 1438 1437 1436 1436 1435 1434 1434 1433 1431 1432 1432
1443 1443 1443 1444 1444 1445 1445 1445 1446 1446 1444 1442 1443 1443 1442 1442 1441 1441 1440 1440 1439 1438 1438 1437 1437 1436 1435 1434 1433 1432 1432 1431 1430 1429 1429 1428 1428 1428
1439 1439 1440 1440 1441 1441 1441 1441 1442 1442 1441 1439 1439 1439 1439 1439 1438 1437 1437 1436 1435 1435 1434 1434 1433 1432 1432 1431 1430 1429 1428 1427 1426 1425 1424 1425 1424 1424
1436 1436 1436 1437 1437 1437 1438 1438 1438 1438 1438 1437 1435 1436 1435 1435 1434 1434 1434 1433 1432 1432 1431 1430 1430 1429 1428 1427 1426 1425 1424 1423 1422 1421 1421 1420 1420 1420
1432 1433 1433 1433 1433 1434 1434 1434 1434 1434 1434 1434 1433 1432 1432 1432 1431 1430 1430 1429 1429 1429 1428 1427 1426 1425 1425 1424 1423 1422 1421 1419 1418 1417 1417 1416 1417 1416
1429 1429 1430 1430 1430 1430 1431 1431 1431 1431 1431 1430 1430 1429 1428 1428 1428 1427 1427 1426 1426 1426 1424 1424 1423 1422 1421 1420 1419 1418 1417 1416 1415 1413 1413 1413 1413 1413
1425 1426 1426 1426 1426 1427 1427 1428 1428 1428 1427 1427 1426 1426 1425 1425 1425 1425 1424 1423 1422 1423 1421 1420 1420 1419 1418 1417 1416 1415 1413 1412 1411 1411 1410 1410 1409 1409
1422 1423 1423 1423 1423 1423 1424 1424 1424 1425 1425 1424 1423 1423 1423 1423 1422 1422 1422 1421 1420 1420 1419 1417 1417 1416 1415 1414 1413 1412 1411 1410 1408 1408 1407 1406 1406 1405
1420 1420 1420 1420 1420 1421 1421 1420 1421 1421 1421 1421 1421 1420 1420 1420 1420 1420 1419 1418 1418 1418 1417 1414 1413 1413 1412 1411 1410 1409 1408 1407 1406 1405 1404 1403 1402 1402
1417 1417 1417 1418 1418 1418 1418 1417 1417 1417 1418 1418 1418 1418 1417 1417 1417 1417 1416 1415 1414 1413 1414 1412 1410 1409 1407 1406 1406 1405 1404 1403 1402 1401 1400 1399 1399 1398
1415 1415 1415 1415 1416 1416 1415 1415 1414 1414 1414 1415 1415 1415 1415 1414 1414 1414 1414 1413 1411 1410 1410 1410 1408 1407 1404 1402 1403 1402 1401 1400 1398 1397 1396 1396 1395 1394
1412 1412 1412 1413 1413 1413 1413 1413 1413 1413 1412 1412 1412 1412 1412 1412 1411 1411 1411 1411 1410 1408 1408 1408 1406 1405 1404 1401 1399 1399 1398 1396 1395 1394 1393 1392 1392 1391
1410 1410 1410 1411 1411 1411 1411 1410 1411 1411 1410 1409 1409 1409 1409 1409 1409 1409 1408 1408 1408 1407 1406 1406 1404 1403 1401 1399 1397 1395 1395 1394 1392 1391 1390 1389 1388 1388
1408 1408 1408 1408 1408 1408 1408 1408 1408 1408 1408 1407 1406 1406 1407 1406 1406 1406 1406 1405 1405 1404 1403 1403 1402 1401 1399 1397 1395 1393 1392 1391 1390 1389 1387 1386 1385 1384
1405 1406 1406 1406 1406 1406 1406 1406 1406 1406 1405 1405 1405 1404 1404 1404 1403 1403 1403 1402 1401 1400 1401 1400 1399 1398 1396 1394 1393 1391 1390 1389 1388 1387 1385 1384 1383 1382
1403 1403 1403 1403 1403 1403 1403 1404 1404 1404 1403 1403 1403 1402 1402 1402 1401 1401 1401 1400 1399 1398 1397 1397 1396 1395 1394 1393 1390 1389 1388 1387 1386 1385 1383 1382 1381 1381
1400 1400 1400 1400 1401 1401 1401 1402 1402 1402 1401 1401 1401 1400 1400 1400 1399 1399 1399 1398 1397 1396 1395 1394 1393 1391 1391 1390 1390 1388 1387 1386 1384 1384 1382 1380 1379 1379
1398 1397 1398 1398 1399 1399 1399 1400 1400 1400 1400 1399 1399 1399 1399 1398 1398 1398 1397 1397 1396 1395 1394 1393 1392 1390 1389 1387 1387 1388 1386 1384 1383 1382 1381 1380 1378 1377
1395 1395 1396 1396 1397 1397 1397 1398 1398 1398 1398 1397 1397 1397 1397 1397 1397 1396 1396 1395 1394 1394 1393 1392 1391 1390 1389 1388 1386 1385 1386 1384 1382 1381 1379 1378 1378 1377
1392 1393 1393 1394 1394 1395 1395 1396 1396 1396 1395 1395 1395 1395 1395 1395 1395 1395 1394 1394 1393 1392 1391 1390 1390 1390 1388 1387 1385 1384 1384 1384 1383 1381 1379 1377 1376 1375
1390 1391 1391 1391 1392 1392 1393 1393 1393 1393 1393 1393 1393 1393 1394 1394 1394 1393 1393 1393 1392 1391 1391 1390 1389 1389 1387 1386 1384 1383 1382 1382 1382 1381 1380 1379 1378 1376
1388 1388 1389 1389 1390 1390 1390 1390 1390 1391 1391 1391 1391 1392 1392 1392 1392 1392 1392 1391 1391 1390 1390 1389 1388 1388 1387 1386 1384 1383 1382 1381 1380 1380 1379 1379 1378 1378